Вернуться в каталог

ATLAS D DEB

АктивенLEO
NORAD 2327·DEBRIS·🇺🇸 United States

Запущен Jul 14, 1966 с Vandenberg Space Force Base

Loading…

Ближайшие Пролёты (ближайшие 24 часа)

TLE

СвежийSource: Space-Track

Эпоха: Sep 14, 2026, 14:42 UTC

1 02327U 66063B   26257.61254963  .00001143  00000-0  52371-3 0  9993
2 02327 144.1955  26.9851 0031443  92.2976 268.1315 14.05806072 50673

Отслеживайте ATLAS D DEB в реальном времени с AllMySat

Download on the App Store